Flag for Sweden Weather past 2 weeks in Eskilstuna, Sweden

Now
59 °F

Partly sunny.


Feels Like: 58 °F
Forecast: 53 / 62 °F
Wind: 7 mph from Southeast

Location: Vasteras / Hasslo

Current Time: Jul 8, 2015 at 8:41:27 AM

Latest Report: Jul 8, 2015 at 7:50 AM


Visibility: N/A

Pressure: 29.42 "Hg

Humidity: 94%

Dew point: 57 °F

Location of EskilstunaLocation

Historic Weather in Eskilstuna — Graph

°F

Eskilstuna temperature yesterday

Maximum temperature yesterday: 70 °F (at 2:50 PM)
Minimum temperature yesterday: 57 °F (at 4:50 AM)
Average temperature yesterday: 63 °F

Past Weeks' High & Low Weather Summary

 TemperatureHumidityPressure
High82 °F (Jul 2, 2:50 PM)100% (Jun 23, 11:50 PM)30.36 "Hg (Jun 23, 11:50 PM)
Low45 °F (Jun 28, 2:50 AM)35% (Jun 27, 5:50 PM)29.45 "Hg (Jul 8, 5:50 AM)
Average64 °F69%29.93 "Hg
* Reported Jun 23 7:20 AM — Jul 8 7:20 AM, Eskilstuna, Weather by CustomWeather, © 2015

Note: Actual official high and low records may vary slightly from our data, if they occured in-between our weather recording intervals... More about our weather records

Advertising

Eskilstuna weather history for previous 24 hours

 ConditionsComfort  
Time TempWeatherWind HumidityBarometerVisibility
7:20 AM
Wed, Jul 8
59 °FPartly sunny.5 mph94%29.45 "HgN/A
6:50 AM59 °FBroken clouds.6 mph94%29.45 "HgN/A
6:20 AM57 °FScattered clouds.3 mph100%29.45 "HgN/A
5:50 AM57 °FLight rain. Broken clouds.3 mph100%29.45 "Hg6 mi
5:20 AM57 °FLight rain. Cloudy.3 mph94%29.47 "Hg5 mi
4:50 AM57 °FLight rain. Cloudy.6 mph94%29.47 "HgN/A
4:20 AM57 °FLight rain. Passing clouds.6 mph94%29.47 "Hg6 mi
3:50 AM57 °FLight rain. Overcast.7 mph94%29.50 "Hg5 mi
3:20 AM57 °FDrizzle. Overcast.9 mph94%29.50 "HgN/A
2:50 AM59 °FLight rain. Overcast.8 mph88%29.50 "HgN/A
2:20 AM59 °FLight rain. Passing clouds.8 mph82%29.50 "HgN/A
1:50 AM61 °FPassing clouds.9 mph77%29.53 "HgN/A
1:20 AM61 °FDrizzle. Overcast.10 mph77%29.53 "HgN/A
12:50 AM59 °FCool.8 mph82%29.53 "HgN/A
12:20 AM59 °FCool.10 mph77%29.53 "HgN/A
11:20 PM
Tue, Jul 7
61 °FCool.10 mph72%29.56 "HgN/A
10:50 PM63 °FMild.12 mph64%29.56 "HgN/A
10:20 PM63 °FPassing clouds.12 mph68%29.56 "HgN/A
9:50 PM63 °FPassing clouds.10 mph68%29.56 "HgN/A
9:20 PM64 °FPassing clouds.13 mph64%29.56 "HgN/A
8:50 PM64 °FSunny.13 mph64%29.56 "Hg10 mi
8:20 PM66 °FSunny.14 mph60%29.56 "Hg10 mi
7:50 PM68 °FPassing clouds.12 mph56%29.56 "HgN/A
7:20 PM68 °FPassing clouds.14 mph56%29.53 "HgN/A
6:50 PM70 °FPassing clouds.13 mph53%29.53 "HgN/A
6:20 PM68 °FScattered clouds.16 mph56%29.56 "HgN/A
5:50 PM70 °FScattered clouds.15 mph53%29.53 "HgN/A
5:20 PM70 °FPassing clouds.17 mph53%29.53 "HgN/A
4:50 PM70 °FPassing clouds.16 mph53%29.53 "HgN/A
4:20 PM68 °FScattered clouds.16 mph56%29.53 "HgN/A
3:50 PM68 °FScattered clouds.17 mph56%29.53 "HgN/A
3:20 PM68 °FScattered clouds.16 mph56%29.53 "HgN/A
2:50 PM70 °FSunny.18 mph53%29.53 "Hg10 mi
2:20 PM68 °FScattered clouds.18 mph53%29.53 "HgN/A
1:50 PM68 °FScattered clouds.17 mph53%29.53 "HgN/A
1:20 PM66 °FPartly sunny.15 mph56%29.53 "HgN/A
12:50 PM66 °FPartly sunny.14 mph56%29.53 "HgN/A
12:20 PM64 °FPartly sunny.17 mph60%29.53 "HgN/A
11:50 AM64 °FPartly sunny.16 mph60%29.50 "HgN/A
11:20 AM64 °FPartly sunny.18 mph60%29.50 "HgN/A
10:50 AM63 °FPartly sunny.16 mph64%29.50 "HgN/A
10:20 AM63 °FPartly sunny.16 mph64%29.50 "HgN/A
9:50 AM61 °FPartly sunny.15 mph68%29.50 "HgN/A
9:20 AM61 °FPartly sunny.20 mph68%29.50 "HgN/A
8:50 AM61 °FPartly sunny.16 mph68%29.50 "HgN/A
8:20 AM59 °FPartly sunny.17 mph72%29.50 "HgN/A
Weather by CustomWeather, © 2015

See weather overviewHow to use our weather pages